Palm Springs, CA

1:14 PM PDT on July 23, 2017 (GMT -0700)
Palm Springs International

Weather History for KPSP - September, 2012

Change the Weather History Date:

Tuesday, September 11, 2012

  Actual Average Record
Temperature  
Mean Temperature 85 °F 88 °F  
Max Temperature 94 °F 102 °F 116 °F (1937)
Min Temperature 76 °F 74 °F 50 °F (1930)
Degree Days  
Heating Degree Days 0 0  
Month to date heating degree days 0 0  
Since 1 July heating degree days 0 0  
Cooling Degree Days 20 23  
Month to date cooling degree days 292 267  
Year to date cooling degree days 3710 3351  
Growing Degree Days 34 (Base 50)    
Moisture  
Dew Point 70 °F    
Average Humidity 66    
Maximum Humidity 87    
Minimum Humidity 44    
Precipitation  
Precipitation 0.00 in 0.02 in 0.22 in (1977)
Month to date precipitation 0.01 0.19  
Year to date precipitation 1.82 3.72  
Since 1 July precipitation 1.03  
Snow  
Snow 0.00 in - - ()
Month to date snowfall 0.0  
Year to date snowfall 0.0  
Snow Depth 0.00 in    
Sea Level Pressure  
Sea Level Pressure 29.86 in    
Wind  
Wind Speed 7 mph (East)    
Max Wind Speed 13 mph    
Max Gust Speed 21 mph    
Visibility 10 miles    
Events      
T = Trace of Precipitation, MM = Missing Value Source: NWS Daily Summary

Daily Weather History Graph

Daily Weather History Graph

Search for Another Location

Airport or City:

Trip Planner

Search our weather history database for the weather conditions in past years. The results will help you decide how hot, cold, wet, or windy it might be!

Date:

Astronomy

Sep. 11, 2012 Rise Set
Actual Time 6:27 AM PDT 6:57 PM PDT
Civil Twilight 6:01 AM PDT 7:22 PM PDT
Nautical Twilight 5:32 AM PDT 7:51 PM PDT
Astronomical Twilight 5:02 AM PDT 8:21 PM PDT
Moon 1:58 AM PDT (9/11) 4:01 PM PDT (9/11)
Length of Visible Light 13h 20m
Length of Day
12h 30m
Waning Crescent, 20% of the Moon is Illuminated
Sep 11
Waning Crescent
Sep 15
New
Sep 22
First Quarter
Sep 29
Full
Oct 8
Last Quarter

Hourly Weather History & Observations

Time (PDT) Temp. Heat Index Dew Point Humidity Pressure Visibility Wind Dir Wind Speed Gust Speed Precip Events Conditions
12:53 AM 82.0 °F 85.5 °F 69.1 °F 65% 29.84 in 10.0 mi East 5.8 mph - N/A   Mostly Cloudy
1:53 AM 81.0 °F 84.4 °F 70.0 °F 69% 29.83 in 10.0 mi East 6.9 mph - N/A   Overcast
2:53 AM 80.1 °F 83.6 °F 71.1 °F 74% 29.83 in 10.0 mi ESE 10.4 mph - N/A   Overcast
3:53 AM 79.0 °F - 71.1 °F 77% 29.83 in 10.0 mi East 10.4 mph - N/A   Overcast
4:53 AM 77.0 °F - 71.1 °F 82% 29.84 in 10.0 mi East 9.2 mph - N/A   Mostly Cloudy
5:38 AM 75.2 °F - 71.6 °F 89% 29.85 in 10.0 mi East 6.9 mph - N/A   Mostly Cloudy
5:51 AM 75.2 °F - 71.6 °F 89% 29.86 in 10.0 mi East 5.8 mph - N/A   Mostly Cloudy
5:53 AM 75.9 °F - 72.0 °F 87% 29.85 in 10.0 mi East 6.9 mph - N/A   Mostly Cloudy
6:03 AM 75.2 °F - 71.6 °F 89% 29.86 in 10.0 mi East 5.8 mph - N/A   Mostly Cloudy
6:18 AM 75.2 °F - 71.6 °F 89% 29.86 in 10.0 mi East 8.1 mph - N/A   Mostly Cloudy
6:39 AM 75.2 °F - 71.6 °F 89% 29.87 in 10.0 mi ESE 5.8 mph - N/A   Overcast
6:53 AM 77.0 °F - 70.0 °F 79% 29.86 in 10.0 mi SE 6.9 mph - N/A   Overcast
7:10 AM 77.0 °F - 71.6 °F 83% 29.87 in 10.0 mi ESE 5.8 mph - N/A   Overcast
7:20 AM 75.2 °F - 71.6 °F 89% 29.88 in 10.0 mi ESE 5.8 mph - N/A   Mostly Cloudy
7:27 AM 77.0 °F - 69.8 °F 78% 29.88 in 10.0 mi East 4.6 mph - N/A   Mostly Cloudy
7:53 AM 77.0 °F - 71.1 °F 82% 29.88 in 10.0 mi East 4.6 mph - N/A   Mostly Cloudy
8:02 AM 77.0 °F - 71.6 °F 83% 29.88 in 10.0 mi East 6.9 mph - N/A   Mostly Cloudy
8:30 AM 78.8 °F - 71.6 °F 78% 29.89 in 10.0 mi ESE 5.8 mph - N/A   Overcast
8:53 AM 79.0 °F - 71.1 °F 77% 29.89 in 10.0 mi SSE 3.5 mph - N/A   Overcast
9:06 AM 80.6 °F 84.6 °F 71.6 °F 74% 29.90 in 10.0 mi ESE 4.6 mph - N/A   Mostly Cloudy
9:17 AM 80.6 °F 84.6 °F 71.6 °F 74% 29.90 in 10.0 mi Calm Calm - N/A   Partly Cloudy
9:53 AM 82.0 °F 86.3 °F 71.1 °F 69% 29.89 in 10.0 mi ESE 4.6 mph - N/A   Overcast
10:53 AM 84.9 °F 89.4 °F 70.0 °F 61% 29.89 in 10.0 mi East 6.9 mph - N/A   Partly Cloudy
11:53 AM 87.1 °F 92.0 °F 70.0 °F 57% 29.88 in 10.0 mi Variable 3.5 mph - N/A   Mostly Cloudy
12:53 PM 89.1 °F 93.7 °F 69.1 °F 52% 29.85 in 10.0 mi ESE 6.9 mph - N/A   Mostly Cloudy
1:53 PM 91.0 °F 95.6 °F 69.1 °F 48% 29.83 in 10.0 mi ESE 10.4 mph - N/A   Mostly Cloudy
2:53 PM 91.9 °F 95.9 °F 68.0 °F 45% 29.81 in 10.0 mi ESE 9.2 mph - N/A   Mostly Cloudy
3:53 PM 93.2 °F 97.7 °F 68.0 °F 44% 29.80 in 10.0 mi East 6.9 mph 20.7 mph N/A   Scattered Clouds
4:53 PM 91.9 °F 96.9 °F 69.1 °F 47% 29.79 in 10.0 mi SSE 9.2 mph - N/A   Scattered Clouds
5:53 PM 91.0 °F 96.6 °F 70.0 °F 50% 29.79 in 10.0 mi East 10.4 mph - N/A   Scattered Clouds
6:53 PM 89.1 °F 93.7 °F 69.1 °F 52% 29.81 in 10.0 mi East 10.4 mph - N/A   Mostly Cloudy
7:53 PM 87.1 °F 91.3 °F 69.1 °F 55% 29.84 in 10.0 mi East 8.1 mph - N/A   Scattered Clouds
8:53 PM 87.1 °F 89.9 °F 66.9 °F 51% 29.86 in 10.0 mi ESE 4.6 mph - N/A   Mostly Cloudy
9:53 PM 86.0 °F 88.8 °F 66.9 °F 53% 29.87 in 10.0 mi NW 10.4 mph - N/A   Overcast
10:53 PM 84.9 °F 87.6 °F 66.9 °F 55% 29.90 in 10.0 mi NW 12.7 mph - N/A   Overcast
11:53 PM 82.9 °F 85.4 °F 66.9 °F 58% 29.89 in 10.0 mi WNW 5.8 mph - N/A   Clear